Time,TemperatureF,DewpointF,PressureIn,WindDirection,WindDirectionDegrees,WindSpeedMPH,WindSpeedGustMPH,Humidity,HourlyPrecipIn,Conditions,Clouds,dailyrainin,SoftwareType,DateUTC
2017-02-27 00:11:00,36.4,25.0,30.11,West,268,8.0,16.0,63,0.00,,,0.00,weatherlink.com 1.10,2017-02-27 05:11:00,
2017-02-27 00:26:00,35.9,25.0,30.11,SSW,209,3.0,12.0,64,0.00,,,0.00,weatherlink.com 1.10,2017-02-27 05:26:00,
2017-02-27 00:41:00,35.6,25.0,30.12,WSW,244,5.0,10.0,65,0.00,,,0.00,weatherlink.com 1.10,2017-02-27 05:41:00,
2017-02-27 00:56:00,35.1,25.0,30.12,SW,230,6.0,13.0,66,0.00,,,0.00,weatherlink.com 1.10,2017-02-27 05:56:00,
2017-02-27 01:11:00,34.8,25.0,30.12,WSW,239,4.0,10.0,68,0.00,,,0.00,weatherlink.com 1.10,2017-02-27 06:11:00,
2017-02-27 01:26:00,34.4,25.0,30.12,WSW,238,6.0,9.0,69,0.00,,,0.00,weatherlink.com 1.10,2017-02-27 06:26:00,
2017-02-27 01:41:00,34.0,25.0,30.13,SW,230,4.0,9.0,70,0.00,,,0.00,weatherlink.com 1.10,2017-02-27 06:41:00,
2017-02-27 01:56:00,33.5,25.0,30.13,SSW,211,7.0,10.0,71,0.00,,,0.00,weatherlink.com 1.10,2017-02-27 06:56:00,
2017-02-27 02:11:00,33.8,25.0,30.13,WSW,241,4.0,11.0,71,0.00,,,0.00,weatherlink.com 1.10,2017-02-27 07:11:00,
2017-02-27 02:27:00,33.6,25.0,30.13,SW,229,3.0,9.0,71,0.00,,,0.00,weatherlink.com 1.10,2017-02-27 07:27:00,
2017-02-27 02:42:00,32.9,25.0,30.14,SW,225,3.0,7.0,74,0.00,,,0.00,weatherlink.com 1.10,2017-02-27 07:42:00,
2017-02-27 02:57:00,32.4,25.0,30.14,WSW,250,4.0,7.0,75,0.00,,,0.00,weatherlink.com 1.10,2017-02-27 07:57:00,
2017-02-27 03:12:00,32.3,26.0,30.13,SW,226,5.0,9.0,76,0.00,,,0.00,weatherlink.com 1.10,2017-02-27 08:12:00,
2017-02-27 03:27:00,32.2,25.0,30.14,SW,227,5.0,10.0,76,0.00,,,0.00,weatherlink.com 1.10,2017-02-27 08:27:00,
2017-02-27 03:42:00,31.8,25.0,30.14,SW,227,4.0,10.0,77,0.00,,,0.00,weatherlink.com 1.10,2017-02-27 08:42:00,
2017-02-27 03:57:00,31.7,26.0,30.15,SSW,211,4.0,9.0,78,0.00,,,0.00,weatherlink.com 1.10,2017-02-27 08:57:00,
2017-02-27 04:12:00,31.5,25.0,30.15,SW,228,5.0,8.0,78,0.00,,,0.00,weatherlink.com 1.10,2017-02-27 09:12:00,
2017-02-27 04:27:00,31.4,26.0,30.16,SW,231,2.0,8.0,79,0.00,,,0.00,weatherlink.com 1.10,2017-02-27 09:27:00,
2017-02-27 04:42:00,31.3,26.0,30.16,WSW,237,3.0,7.0,79,0.00,,,0.00,weatherlink.com 1.10,2017-02-27 09:42:00,
2017-02-27 04:57:00,31.3,26.0,30.16,SW,234,2.0,5.0,79,0.00,,,0.00,weatherlink.com 1.10,2017-02-27 09:57:00,
2017-02-27 05:12:00,31.2,26.0,30.17,SW,218,4.0,9.0,80,0.00,,,0.00,weatherlink.com 1.10,2017-02-27 10:12:00,
2017-02-27 05:27:00,31.2,26.0,30.17,WSW,238,3.0,9.0,80,0.00,,,0.00,weatherlink.com 1.10,2017-02-27 10:27:00,
2017-02-27 05:42:00,31.0,26.0,30.18,SW,227,5.0,8.0,80,0.00,,,0.00,weatherlink.com 1.10,2017-02-27 10:42:00,